Temperature
20 20 20 20 21 22 23 24 24 24 25 25 25 24 23 22 21 19 18 18 18 18 18 18 18 18 17 17 17 17 17 17 17 17 17 17 17 17 17 17 17 17 17 17 17 17 17 17 17
20 20 20 21 21 23 23 23 24 24 25 25 24 24 23 21 20 19 18 18 18 18 18 18 18 18 17 17 17 17 17 17 17 17 17 17 17 17 17 17 17 17 17 17 17 17 17 17 17
21 21 21 22 23 23 23 23 24 25 25 25 24 23 21 20 19 18 18 18 18 18 18 18 17 17 17 17 17 17 17 17 17 17 17 17 17 17 17 17 17 17 17 17 17 17 17 17 17
21 21 22 23 23 23 24 24 25 25 25 24 23 22 20 19 19 19 18 18 18 17 18 18 18 17 17 17 17 17 17 17 17 16 16 17 17 17 17 17 17 17 17 17 17 17 17 17 17
22 22 23 23 24 24 25 25 25 25 25 24 23 21 19 19 19 18 18 18 18 17 18 18 18 17 17 17 17 17 17 17 17 17 16 16 17 17 17 17 16 17 17 17 17 17 17 17 17
22 23 23 23 23 24 25 25 25 25 24 24 23 21 19 19 18 18 18 18 18 18 18 18 18 17 17 17 17 17 17 17 17 17 17 17 17 17 16 16 16 16 17 17 17 17 17 17 17
23 23 23 23 23 23 24 25 24 24 24 23 23 21 19 19 18 18 18 18 18 18 18 18 18 17 17 17 17 17 17 17 17 17 17 17 17 17 17 16 16 16 16 17 17 17 17 17 17
23 23 23 23 23 23 24 24 24 23 23 23 23 21 19 19 19 18 18 18 18 18 18 18 17 17 17 17 17 17 17 17 17 17 17 17 17 16 16 16 16 16 16 16 17 17 17 16 16
24 23 23 23 23 23 24 24 24 23 23 22 22 21 20 19 19 19 19 18 18 18 18 18 18 17 17 17 17 17 17 17 17 17 17 17 16 16 16 16 16 16 16 16 16 16 16 16 16
25 22 23 24 24 24 24 24 24 23 23 22 21 20 19 19 19 19 19 19 18 18 18 18 18 18 17 17 17 17 17 17 17 17 17 17 16 16 16 16 16 16 16 16 16 16 16 16 16
25 24 24 25 25 24 24 24 23 23 22 22 21 20 19 19 19 19 19 19 18 18 18 18 18 18 18 17 17 17 17 17 17 17 17 17 17 16 16 16 16 16 16 16 16 16 16 16 16
25 25 25 25 24 24 24 24 23 22 22 21 21 20 20 20 19 19 19 19 19 18 18 18 18 18 18 17 17 17 17 17 17 17 17 17 17 16 16 16 16 16 16 16 16 16 16 16 16
25 25 25 24 24 24 24 23 23 22 21 21 21 20 20 20 20 20 20 19 19 19 18 18 18 18 18 18 17 17 17 17 17 17 17 17 17 16 16 16 16 16 16 16 16 16 16 16 16
25 25 25 24 24 24 24 23 22 22 21 21 21 20 20 20 20 20 20 20 19 19 18 18 18 18 18 18 18 17 17 17 17 17 17 17 17 17 16 16 16 16 16 16 16 16 16 16 16
25 25 24 24 24 24 24 22 22 21 21 21 21 20 20 20 20 20 20 20 19 19 19 18 18 18 18 18 17 17 17 17 17 17 17 17 17 16 16 16 16 16 16 16 16 16 16 15 15
25 24 23 24 25 24 23 21 22 22 22 21 21 20 20 20 20 20 20 19 19 19 19 18 18 18 18 17 17 17 17 17 17 17 17 17 16 16 16 16 16 16 16 16 16 15 15 15 15
24 23 23 24 25 25 23 22 22 22 22 21 21 20 20 20 20 20 20 19 19 19 19 18 18 18 18 17 17 17 17 17 16 16 16 16 16 16 16 16 16 16 16 16 15 15 15 15 15
23 24 24 24 25 24 23 23 22 22 22 22 21 21 20 20 20 19 19 19 19 19 19 18 18 18 18 17 17 17 17 16 16 16 16 16 16 16 16 16 16 16 15 15 15 15 15 15 15
25 25 24 24 25 24 23 23 23 22 22 22 21 21 20 20 20 19 19 19 19 19 18 18 18 17 17 17 17 17 16 16 16 16 16 16 16 16 16 16 15 15 15 15 15 15 15 15 15
25 24 24 25 25 24 24 24 23 23 22 22 22 21 21 20 20 19 19 19 19 18 18 18 18 17 17 17 17 16 16 16 16 16 16 16 15 15 15 15 15 15 15 15 15 15 15 15 15
24 24 25 24 25 25 24 23 23 23 23 22 22 22 21 20 20 19 19 19 19 18 18 18 18 17 17 17 17 16 16 16 16 16 16 15 15 15 15 15 15 15 15 15 15 15 15 15 15
24 25 25 24 23 23 24 22 23 23 23 23 22 22 21 21 20 19 19 19 18 18 18 18 18 17 17 17 17 16 16 16 16 15 15 15 15 15 15 15 15 15 15 15 15 15 15 15 15
24 25 25 24 24 23 24 23 23 23 22 22 23 22 21 21 20 19 19 19 18 18 18 18 17 17 17 17 17 16 16 16 16 16 15 15 15 15 15 15 15 15 15 15 15 15 15 15 15
25 25 25 24 24 22 24 24 22 23 23 23 23 22 21 21 20 20 19 19 18 18 18 17 17 17 17 17 17 16 16 16 16 16 15 15 15 15 15 15 15 15 15 15 14 14 14 15 15
25 23 22 22 22 23 25 24 23 24 25 24 23 22 21 21 20 19 19 18 18 18 17 17 17 17 17 17 17 16 16 16 16 16 15 15 15 15 15 15 15 14 14 14 14 14 14 14 14
24 24 21 21 22 23 24 23 23 24 24 24 23 22 21 21 20 19 19 18 18 17 17 17 17 17 17 17 17 16 16 16 16 16 15 15 15 15 15 15 14 14 14 14 14 14 14 14 14
24 23 24 23 23 23 23 23 23 24 23 23 23 22 21 21 20 19 19 18 18 18 17 17 17 17 17 16 16 16 16 16 16 16 15 15 15 15 15 14 14 14 14 14 14 14 14 14 14
24 24 23 22 21 21 23 23 22 22 22 23 22 21 21 20 20 19 19 18 18 18 17 17 17 17 17 17 16 16 16 16 16 16 15 15 15 15 14 14 14 14 14 14 14 14 14 14 14
24 23 23 23 22 21 21 22 24 23 23 22 22 21 20 20 20 19 18 18 18 18 17 17 17 17 17 17 16 16 16 16 15 15 15 15 15 14 14 14 14 14 14 14 14 14 14 14 14
24 24 23 22 22 22 21 21 24 23 23 22 22 21 20 20 19 19 18 18 18 17 17 17 17 17 17 16 16 16 16 16 15 15 15 15 15 14 14 14 14 14 14 14 14 14 14 14 13
Wind_Speed
9 10 6 2 2 2 3 5 7 6 7 9 10 9 11 12 8 8 3 6 9 10 12 12 12 12 12 12 12 12 12 12 13 13 12 12 12 12 12 12 12 12 12 12 12 12 11 10 10
9 6 4 3 2 1 4 6 9 9 7 6 8 11 11 11 10 8 4 7 9 11 12 11 11 12 12 12 12 12 12 12 12 12 13 13 12 12 12 11 12 12 12 13 13 13 13 13 11
9 7 3 3 1 3 5 7 7 8 7 7 8 10 7 7 8 5 5 8 10 11 13 12 12 12 11 12 12 12 11 11 12 12 12 12 12 12 12 11 12 12 13 13 13 13 14 14 13
5 3 4 1 5 7 7 7 6 7 7 7 9 8 7 7 6 7 7 9 10 11 13 12 12 12 11 11 11 11 11 11 11 12 12 11 11 11 11 11 12 12 12 13 13 13 13 13 12
3 3 2 2 5 7 7 6 6 7 6 8 10 9 8 8 9 9 7 8 10 9 12 12 12 11 10 10 10 10 11 11 11 11 11 10 10 11 11 11 12 12 12 12 12 13 13 12 11
3 3 1 2 6 7 7 5 6 7 9 9 9 9 7 7 8 7 7 7 8 9 10 12 12 11 10 10 10 10 10 10 10 10 10 10 10 10 11 11 12 12 11 11 12 12 12 11 11
3 2 1 3 5 6 6 6 8 8 9 8 7 7 7 7 6 6 7 7 7 8 8 10 11 11 10 10 10 9 9 9 9 9 9 10 10 9 10 11 11 11 11 10 10 10 10 10 10
3 3 1 3 5 5 4 6 8 8 7 6 6 7 7 8 6 6 7 7 7 7 6 6 9 11 11 10 9 8 8 8 8 8 8 8 9 9 9 10 10 10 10 9 9 8 9 8 8
3 2 2 3 4 4 4 6 6 6 8 9 10 11 11 10 7 6 7 7 6 6 5 5 6 7 9 10 9 8 8 7 6 6 7 7 7 8 9 9 9 9 8 7 6 5 5 5 6
1 1 4 4 5 4 5 6 4 5 7 9 11 12 12 9 7 6 6 7 6 5 5 5 5 4 5 6 8 7 7 7 6 6 6 5 6 9 10 9 8 7 6 5 3 3 3 2 4
1 3 4 5 5 4 5 5 5 5 5 7 9 10 10 8 6 6 5 7 6 6 5 4 4 4 4 4 4 3 4 4 3 4 6 6 7 7 8 7 6 5 5 3 3 2 1 5 7
2 4 4 5 4 4 4 5 6 8 6 7 8 9 8 7 7 6 6 7 7 6 4 3 4 4 4 5 4 3 2 2 4 4 6 5 3 3 4 4 4 4 4 4 4 4 6 8 8
2 3 4 4 3 5 5 6 6 7 6 8 8 7 6 6 5 6 6 7 7 7 5 3 3 4 4 4 2 3 3 3 5 5 5 6 3 2 3 4 5 4 4 4 4 5 7 7 8
2 3 4 4 4 3 5 5 4 4 6 7 7 6 5 5 4 5 5 6 7 7 6 4 4 4 4 4 3 4 4 4 6 4 4 6 4 4 4 4 4 4 5 5 5 6 5 5 6
2 3 4 3 4 3 3 3 4 6 6 6 6 6 5 4 4 4 4 5 6 7 6 4 5 5 5 5 4 4 4 5 4 4 5 6 6 6 5 3 4 4 6 7 6 6 5 4 5
5 4 3 3 4 4 3 2 5 6 6 6 6 6 5 4 4 4 5 5 5 6 7 5 4 4 5 5 3 3 4 4 4 5 5 6 7 7 6 3 3 6 6 5 3 4 4 4 4
5 5 5 4 5 4 4 3 6 6 6 6 6 7 6 5 4 4 5 5 5 6 7 6 5 4 4 5 4 3 4 4 4 5 5 6 6 8 6 3 4 6 4 3 4 4 4 4 4
5 5 4 4 5 5 4 4 7 7 7 6 6 6 6 6 5 5 5 6 5 5 6 6 6 4 4 3 4 3 4 3 4 4 4 5 6 7 5 3 4 5 4 4 4 4 3 3 3
5 4 2 3 4 3 4 5 7 8 7 6 6 5 6 6 6 5 5 5 5 5 5 6 6 4 3 3 3 3 2 2 3 3 4 5 5 5 5 3 3 4 3 3 4 3 3 2 3
6 5 2 2 4 3 4 5 6 8 8 7 7 7 6 6 6 6 6 4 5 4 5 6 5 5 4 3 2 3 3 2 3 2 3 4 5 5 3 3 3 3 3 3 3 3 2 1 2
7 6 4 3 3 5 5 5 8 9 8 8 6 6 6 7 7 8 7 5 4 4 4 4 5 5 4 4 2 3 3 2 2 2 2 3 5 4 4 3 2 3 3 3 2 2 2 1 1
6 5 4 4 5 5 6 4 6 9 8 9 8 6 6 6 7 7 7 6 5 5 4 4 4 5 4 4 3 4 3 2 2 2 2 2 3 3 3 3 2 2 2 3 1 2 1 1 1
5 5 6 7 8 9 8 6 4 9 9 9 8 8 7 7 7 8 7 7 6 5 5 4 4 4 4 4 4 3 2 2 2 3 3 2 2 2 2 2 2 2 2 2 2 2 2 1 1
5 7 8 8 7 8 9 6 2 5 8 9 8 7 7 7 7 8 8 7 6 5 5 4 3 3 4 4 5 4 4 4 3 3 3 2 2 1 2 2 1 1 2 2 2 2 2 1 1
6 5 3 4 5 5 4 2 1 4 5 5 7 7 7 6 6 6 7 8 6 6 5 4 4 3 3 4 4 5 5 5 5 4 4 3 2 1 1 1 1 1 2 3 2 2 1 1 1
6 6 4 3 3 2 3 3 4 7 7 5 5 6 6 6 6 6 6 7 7 7 6 5 5 4 4 4 3 4 5 3 3 4 4 3 3 3 2 2 2 1 2 3 2 1 1 1 2
6 7 7 8 10 6 2 4 6 7 5 4 6 6 6 6 6 6 6 6 6 7 6 6 5 5 4 4 3 3 4 4 4 4 3 3 3 3 3 3 2 2 2 2 3 2 2 2 2
8 7 5 4 4 5 4 3 4 6 5 4 5 6 5 6 5 5 5 5 5 6 6 6 5 5 5 5 4 3 3 4 3 3 4 4 4 3 3 3 3 3 2 2 3 2 1 3 2
8 8 6 4 5 4 3 1 4 6 6 5 5 6 5 5 5 5 4 4 4 4 5 5 5 4 3 4 4 4 3 4 4 3 4 4 4 4 3 3 3 3 3 3 3 2 2 2 1
7 7 7 5 5 5 4 0 4 6 6 4 4 5 5 5 4 5 5 4 4 3 3 3 4 4 3 3 3 4 5 5 4 4 4 3 4 4 4 4 3 3 3 3 3 3 2 1 2
Wind_Direction
272 256 251 270 260 222 59 69 81 65 58 54 52 60 63 54 53 90 110 75 85 94 94 86 81 80 80 77 73 74 74 74 75 78 80 83 83 81 80 77 73 70 69 68 66 63 60 62 71
278 280 267 243 262 115 76 73 73 69 74 74 66 66 67 66 73 95 96 81 86 91 90 88 86 82 82 79 74 75 76 76 78 80 83 84 83 80 79 77 73 72 71 69 66 63 57 65 73
263 264 264 252 17 55 78 80 84 82 74 73 73 64 59 63 77 96 106 103 92 90 91 90 89 85 83 79 76 76 77 79 81 82 84 84 83 81 79 78 74 73 71 69 66 64 61 65 67
269 259 243 253 65 61 79 97 102 92 80 75 82 76 75 58 81 103 110 107 100 98 97 97 94 90 86 81 78 78 77 80 82 84 86 84 84 81 78 76 75 73 72 70 67 67 67 64 60
254 262 253 98 77 77 72 72 79 84 82 75 82 89 85 78 93 105 106 104 103 102 104 107 102 98 93 87 84 81 81 83 85 85 86 86 86 82 79 77 75 74 74 73 71 71 68 63 56
272 266 288 84 82 80 70 60 70 79 87 84 93 96 95 105 104 106 105 104 107 112 112 116 118 111 103 95 90 86 85 86 88 89 90 91 90 87 83 80 79 78 78 79 77 74 70 63 57
287 305 336 84 92 78 70 62 63 75 75 69 84 97 111 109 108 114 114 110 108 112 120 129 128 122 115 107 102 98 97 97 98 99 101 101 100 96 92 87 86 85 84 81 81 79 75 69 63
289 298 6 75 93 80 70 73 70 72 72 67 67 101 119 125 129 124 119 112 111 111 118 125 128 133 130 123 119 119 118 114 117 123 124 119 114 111 104 94 91 91 90 89 88 87 87 81 71
276 306 39 58 80 92 100 94 88 89 83 72 73 92 113 126 129 129 123 116 107 105 110 116 124 129 134 135 134 146 145 142 144 156 162 156 144 127 109 100 103 102 101 102 103 106 106 103 87
221 30 51 56 86 112 108 97 103 102 92 90 90 99 115 129 138 134 129 126 120 118 117 113 117 120 119 120 140 161 154 159 182 173 167 163 112 101 106 118 122 125 123 125 140 161 170 155 98
58 79 68 63 73 88 97 90 69 82 84 98 114 121 131 139 139 135 128 119 117 110 99 107 115 113 119 113 119 118 122 146 119 83 98 97 111 130 130 140 149 157 153 142 133 159 126 95 87
86 81 79 80 79 88 89 91 78 66 73 96 112 131 141 146 142 137 126 122 126 118 116 111 115 118 117 105 105 115 106 104 86 67 82 82 74 90 105 114 118 121 100 81 74 69 62 63 70
119 108 94 89 96 92 94 91 90 86 94 106 119 129 138 137 139 136 135 132 130 128 122 109 102 97 101 100 102 97 79 66 80 52 66 78 64 69 79 85 80 78 87 90 69 66 63 59 53
110 121 122 130 121 120 115 111 113 108 123 125 130 132 135 132 138 136 136 135 136 134 135 127 116 106 98 96 83 80 79 70 69 50 42 76 73 69 70 70 67 64 64 72 80 75 74 74 70
173 179 159 159 163 149 135 120 129 136 146 140 140 136 128 130 140 137 132 132 128 130 129 123 115 107 100 88 74 75 72 76 69 47 34 60 65 72 78 70 77 72 66 61 65 67 70 73 73
218 207 191 176 177 170 209 155 129 148 157 148 146 140 146 152 160 147 138 128 123 121 119 116 108 96 97 100 91 83 74 69 70 57 31 42 63 77 76 66 71 78 74 72 65 65 65 65 72
228 226 193 178 186 184 203 156 149 164 160 156 155 153 159 160 155 142 142 135 127 122 123 125 103 98 90 100 99 76 81 72 66 63 43 35 51 69 75 66 77 77 69 58 65 62 69 74 80
237 233 200 185 181 194 204 177 161 176 178 172 167 166 163 163 164 158 148 133 130 126 126 124 110 102 97 95 91 73 60 70 68 61 51 36 51 65 73 71 76 83 70 57 66 68 60 74 73
285 270 214 156 162 207 221 199 174 173 178 174 171 173 166 167 164 156 145 137 138 133 126 123 128 123 108 99 99 94 75 66 69 65 65 50 48 58 75 79 68 82 82 77 82 84 76 71 84
271 269 240 178 170 219 234 218 178 172 181 185 186 180 177 169 164 150 141 145 147 140 140 135 137 134 118 104 108 113 103 89 80 63 59 60 58 50 63 97 90 87 89 77 77 83 74 60 82
258 264 262 245 222 222 242 230 191 180 184 182 190 179 173 175 171 160 155 152 147 147 146 145 147 138 134 131 115 101 87 78 92 87 68 59 66 61 47 51 90 111 117 122 118 111 99 69 350
265 274 280 267 262 251 225 244 193 180 182 184 187 181 174 173 170 159 156 156 160 159 149 151 149 148 148 138 132 140 148 149 133 116 119 106 90 74 62 48 75 98 105 120 143 109 92 90 344
277 301 277 263 262 266 247 249 191 172 185 187 184 181 178 174 169 161 162 162 161 160 154 156 157 154 155 157 156 167 152 148 131 121 119 106 100 93 76 57 66 81 103 111 95 82 77 78 82
259 267 258 251 257 258 244 232 184 179 185 180 174 170 169 167 166 163 161 155 157 151 143 150 156 164 165 172 169 175 162 151 137 132 136 123 112 97 78 74 81 86 91 98 102 104 103 90 70
244 260 262 231 223 237 196 174 129 108 103 126 150 159 161 158 154 155 154 150 149 149 151 158 156 171 181 192 182 176 174 168 168 165 163 157 148 142 129 100 64 75 90 96 89 100 119 122 91
238 242 254 277 275 265 177 164 121 94 85 94 123 133 144 152 155 156 150 148 154 156 159 169 174 185 192 195 193 183 170 168 170 165 159 155 149 147 139 124 103 83 91 98 84 77 69 80 80
254 248 260 277 288 286 214 144 121 102 102 103 110 122 142 149 149 151 148 148 155 162 169 180 178 183 184 190 197 198 171 163 157 163 154 142 146 151 147 141 123 103 94 92 94 82 69 75 70
256 274 266 264 291 282 252 209 158 145 135 118 110 120 127 131 137 138 143 151 155 167 173 179 180 180 187 184 186 176 165 155 150 158 152 152 145 139 154 149 145 149 132 107 90 83 74 83 80
230 248 254 259 258 280 295 44 77 122 125 126 120 120 120 115 128 132 137 150 156 153 163 175 176 173 176 179 171 162 171 160 155 166 149 149 146 150 168 165 161 150 143 133 132 145 130 126 144
255 253 254 257 262 259 270 118 77 92 98 107 115 117 124 131 138 134 133 132 138 147 153 174 172 171 173 175 171 170 172 160 163 166 163 171 165 168 176 168 156 147 147 149 144 154 154 154 136
Height
1499 1499 1501 1502 1503 1504 1504 1500 1496 1497 1497 1500 1500 1501 1505 1509 1515 1525 1525 1524 1523 1523 1522 1522 1522 1522 1522 1522 1522 1522 1522 1522 1522 1522 1522 1523 1523 1524 1524 1525 1525 1525 1525 1525 1525 1525 1524 1522 1524
1500 1501 1503 1503 1504 1509 1507 1500 1500 1499 1501 1501 1503 1505 1508 1514 1518 1522 1523 1524 1524 1524 1523 1523 1523 1523 1524 1524 1523 1523 1523 1523 1524 1524 1524 1525 1525 1526 1526 1527 1527 1527 1527 1527 1527 1526 1523 1519 1523
1501 1502 1503 1501 1502 1507 1507 1501 1500 1501 1502 1502 1505 1509 1513 1518 1521 1522 1524 1525 1525 1525 1525 1525 1525 1525 1525 1525 1525 1525 1525 1525 1526 1526 1526 1527 1527 1528 1528 1528 1529 1529 1529 1529 1529 1528 1526 1525 1527
1503 1503 1502 1502 1504 1501 1500 1500 1500 1501 1503 1504 1506 1512 1517 1521 1522 1524 1525 1526 1526 1526 1526 1526 1527 1527 1527 1527 1527 1527 1527 1527 1528 1528 1529 1529 1529 1530 1530 1530 1531 1531 1531 1531 1531 1531 1530 1530 1530
1504 1503 1502 1503 1502 1500 1499 1500 1501 1502 1504 1506 1509 1515 1520 1523 1523 1524 1526 1527 1527 1528 1528 1528 1528 1528 1528 1529 1529 1529 1529 1529 1530 1530 1530 1531 1531 1532 1532 1532 1532 1532 1533 1533 1533 1533 1533 1533 1533
1505 1501 1506 1508 1505 1501 1501 1502 1502 1503 1506 1508 1511 1516 1522 1524 1525 1526 1527 1528 1529 1529 1529 1530 1530 1530 1530 1530 1531 1531 1531 1531 1532 1532 1532 1533 1533 1533 1533 1534 1534 1534 1534 1535 1535 1535 1535 1535 1535
1506 1503 1506 1505 1507 1505 1504 1504 1505 1506 1508 1510 1512 1517 1523 1525 1526 1527 1528 1529 1530 1531 1531 1531 1532 1532 1532 1532 1533 1533 1533 1533 1534 1534 1534 1535 1535 1535 1535 1536 1536 1536 1536 1537 1537 1537 1537 1537 1538
1505 1504 1505 1505 1508 1509 1506 1506 1508 1509 1511 1513 1514 1517 1523 1526 1527 1528 1529 1530 1531 1532 1533 1534 1534 1534 1534 1534 1535 1535 1535 1535 1536 1536 1536 1537 1537 1537 1537 1537 1538 1538 1538 1538 1539 1539 1539 1540 1540
1505 1507 1509 1507 1507 1509 1507 1508 1510 1512 1513 1515 1516 1519 1523 1525 1527 1529 1530 1532 1533 1534 1535 1535 1536 1536 1536 1536 1537 1537 1537 1537 1538 1538 1539 1539 1539 1539 1539 1540 1540 1540 1540 1541 1541 1541 1541 1542 1542
1504 1510 1508 1504 1505 1506 1507 1509 1511 1512 1514 1517 1520 1522 1524 1526 1528 1529 1531 1532 1534 1535 1536 1537 1537 1538 1539 1539 1539 1539 1539 1539 1539 1540 1541 1541 1541 1542 1542 1542 1541 1542 1542 1543 1543 1543 1543 1544 1544
1503 1506 1505 1505 1506 1507 1508 1510 1512 1513 1516 1518 1521 1523 1526 1527 1529 1530 1531 1533 1534 1536 1537 1538 1539 1539 1540 1540 1541 1541 1541 1542 1542 1543 1543 1543 1543 1543 1543 1543 1543 1543 1544 1544 1545 1545 1545 1546 1546
1504 1505 1506 1507 1508 1509 1510 1512 1514 1516 1519 1520 1522 1524 1526 1527 1529 1531 1532 1534 1535 1537 1538 1539 1540 1541 1541 1541 1542 1542 1543 1543 1544 1544 1544 1544 1544 1544 1544 1544 1545 1545 1546 1546 1547 1547 1547 1548 1548
1504 1506 1507 1509 1510 1511 1512 1514 1516 1519 1520 1521 1523 1525 1526 1528 1529 1531 1532 1534 1536 1537 1538 1539 1540 1541 1542 1542 1543 1544 1544 1545 1545 1545 1546 1546 1546 1546 1546 1546 1546 1547 1547 1548 1548 1548 1548 1549 1549
1505 1506 1508 1509 1510 1512 1513 1515 1517 1520 1521 1522 1524 1525 1527 1528 1529 1531 1533 1534 1536 1537 1538 1540 1541 1542 1542 1543 1544 1545 1545 1546 1546 1546 1547 1547 1547 1547 1547 1547 1547 1548 1549 1549 1549 1550 1550 1550 1550
1506 1507 1508 1509 1510 1512 1513 1516 1517 1519 1521 1522 1524 1525 1527 1528 1530 1531 1533 1534 1536 1537 1539 1540 1541 1542 1543 1544 1545 1546 1546 1546 1547 1547 1547 1548 1548 1547 1547 1548 1548 1549 1549 1550 1550 1551 1551 1551 1551
1505 1508 1514 1509 1509 1511 1516 1522 1517 1519 1520 1522 1523 1525 1527 1529 1530 1531 1533 1534 1536 1537 1539 1540 1541 1542 1543 1544 1545 1546 1547 1547 1547 1548 1548 1549 1549 1548 1548 1549 1550 1550 1550 1551 1551 1551 1551 1551 1552
1507 1513 1513 1510 1507 1508 1513 1518 1517 1518 1519 1521 1523 1525 1526 1528 1530 1531 1533 1534 1536 1537 1539 1540 1541 1542 1543 1545 1546 1547 1547 1548 1548 1548 1549 1549 1549 1549 1549 1550 1551 1551 1551 1551 1552 1552 1552 1552 1553
1511 1508 1508 1509 1506 1507 1511 1514 1515 1517 1518 1520 1522 1524 1525 1527 1529 1531 1532 1534 1536 1537 1538 1540 1541 1542 1543 1545 1546 1547 1547 1548 1548 1549 1549 1550 1550 1550 1550 1551 1551 1551 1552 1552 1552 1553 1553 1554 1554
1500 1503 1506 1505 1503 1506 1510 1511 1512 1514 1516 1518 1521 1523 1524 1526 1528 1530 1531 1533 1535 1537 1538 1539 1540 1542 1543 1544 1545 1546 1547 1548 1548 1549 1549 1550 1550 1550 1551 1551 1552 1552 1552 1553 1553 1554 1554 1555 1556
1502 1505 1505 1503 1501 1505 1508 1509 1509 1511 1514 1516 1518 1520 1522 1525 1527 1528 1530 1532 1534 1536 1537 1538 1540 1541 1543 1544 1545 1546 1547 1547 1548 1548 1549 1550 1550 1550 1551 1551 1552 1552 1553 1553 1554 1555 1555 1556 1556
1503 1505 1504 1505 1502 1503 1507 1510 1508 1508 1511 1513 1516 1518 1520 1522 1525 1527 1529 1531 1533 1535 1536 1538 1539 1541 1542 1543 1545 1546 1547 1547 1548 1548 1549 1549 1550 1550 1551 1551 1552 1552 1553 1553 1554 1555 1555 1556 1556
1507 1499 1500 1502 1508 1510 1507 1519 1507 1505 1507 1509 1513 1515 1517 1520 1523 1525 1527 1529 1532 1534 1535 1537 1538 1540 1541 1542 1544 1545 1546 1547 1548 1548 1549 1549 1550 1550 1551 1551 1552 1552 1553 1553 1554 1554 1555 1556 1556
1502 1498 1499 1501 1506 1508 1503 1510 1507 1501 1506 1506 1509 1512 1515 1518 1520 1523 1525 1528 1530 1532 1534 1536 1537 1539 1540 1541 1543 1544 1545 1546 1547 1548 1548 1549 1550 1550 1551 1551 1551 1552 1552 1553 1553 1554 1555 1555 1556
1498 1500 1499 1500 1505 1515 1501 1506 1510 1501 1500 1501 1505 1509 1512 1515 1518 1521 1524 1526 1529 1531 1533 1534 1536 1537 1538 1540 1541 1543 1544 1545 1546 1547 1548 1548 1549 1550 1550 1551 1551 1552 1552 1552 1553 1553 1554 1555 1555
1499 1508 1518 1519 1519 1512 1492 1501 1506 1494 1494 1497 1502 1506 1510 1513 1516 1519 1522 1524 1527 1529 1531 1533 1534 1536 1537 1539 1540 1541 1543 1544 1545 1546 1547 1548 1548 1549 1549 1550 1551 1551 1552 1552 1552 1553 1553 1554 1554
1499 1504 1521 1528 1521 1507 1495 1503 1501 1493 1495 1498 1502 1505 1509 1512 1515 1518 1520 1523 1525 1527 1529 1531 1533 1534 1536 1537 1539 1540 1541 1543 1544 1545 1546 1547 1547 1548 1549 1549 1550 1551 1551 1551 1552 1552 1553 1553 1554
1501 1502 1499 1508 1508 1510 1503 1499 1497 1494 1498 1500 1502 1505 1508 1511 1514 1516 1519 1521 1524 1526 1528 1529 1531 1533 1534 1536 1537 1539 1540 1541 1543 1544 1545 1546 1546 1547 1548 1548 1549 1549 1550 1551 1551 1551 1552 1552 1553
1496 1497 1502 1509 1520 1521 1509 1503 1505 1501 1500 1501 1503 1506 1508 1511 1514 1516 1518 1520 1522 1524 1526 1528 1529 1531 1533 1534 1536 1537 1538 1540 1541 1543 1543 1544 1545 1546 1547 1548 1548 1548 1549 1549 1550 1551 1551 1552 1552
1498 1499 1500 1503 1506 1519 1520 1513 1492 1496 1497 1500 1503 1506 1508 1511 1513 1515 1517 1519 1521 1523 1524 1526 1527 1529 1531 1532 1534 1535 1537 1538 1540 1541 1542 1543 1544 1545 1546 1547 1547 1548 1548 1548 1549 1550 1550 1551 1551
1493 1495 1498 1510 1509 1506 1514 1514 1493 1495 1498 1501 1503 1506 1508 1511 1513 1515 1516 1518 1520 1521 1522 1524 1525 1527 1528 1530 1532 1533 1535 1537 1538 1540 1541 1542 1543 1544 1545 1546 1546 1547 1548 1548 1549 1549 1549 1550 1550